• In Latvia
  • List of Countries
  • For 7 days
  • Water Temperature
  • Satellite Maps
  • Weather Map
  • Weather Widgets
  • user-avatar
    Login

    Hourly Weather Bar

    Today, 20 April, Friday

    Time Temperature Precipitation Wind Pressure Humidity
    00:00 +7°C° 0 mm 6 mps 737 mmHg 76%
    01:00 +7°C° 0 mm 6 mps 737 mmHg 78%
    02:00 +6°C° 0 mm 4 mps 737 mmHg 83%
    03:00 +6°C° 0 mm 4 mps 738 mmHg 83%
    04:00 +6°C° 0 mm 5 mps 738 mmHg 83%
    05:00 +6°C° 0 mm 5 mps 738 mmHg 83%
    06:00 +5°C° 0 mm 6 mps 739 mmHg 80%
    07:00 +7°C° 0 mm 6 mps 739 mmHg 78%
    08:00 +8°C° 0 mm 6 mps 739 mmHg 74%
    09:00 +10°C° 0 mm 6 mps 739 mmHg 68%
    10:00 +11°C° 0 mm 7 mps 740 mmHg 62%
    11:00 +12°C° 0 mm 7 mps 740 mmHg 57%
    12:00 +14°C° 0 mm 7 mps 740 mmHg 54%
    13:00 +15°C° 0 mm 7 mps 740 mmHg 51%
    14:00 +16°C° 0 mm 6 mps 740 mmHg 47%
    15:00 +16°C° 0 mm 6 mps 739 mmHg 48%
    16:00 +16°C° 0 mm 6 mps 739 mmHg 49%
    17:00 +15°C° 0 mm 6 mps 739 mmHg 50%
    18:00 +14°C° 0 mm 5 mps 739 mmHg 56%
    19:00 +12°C° 0 mm 4 mps 740 mmHg 61%
    20:00 +11°C° 0 mm 3 mps 740 mmHg 67%
    21:00 +10°C° 0 mm 2 mps 740 mmHg 69%
    22:00 +10°C° 0 mm 2 mps 740 mmHg 71%
    23:00 +9°C° 0 mm 2 mps 740 mmHg 72%

    Tomorrow, 21 April, Saturday

    Time Temperature Precipitation Wind Pressure Humidity
    00:00 +9°C° 0 mm 2 mps 740 mmHg 74%
    01:00 +8°C° 0 mm 2 mps 740 mmHg 75%
    02:00 +8°C° 0 mm 2 mps 739 mmHg 76%
    03:00 +8°C° 0 mm 2 mps 739 mmHg 78%
    04:00 +8°C° 0 mm 2 mps 739 mmHg 79%
    05:00 +7°C° 0 mm 2 mps 738 mmHg 80%
    06:00 +9°C° 0 mm 3 mps 738 mmHg 75%
    07:00 +10°C° 0 mm 3 mps 738 mmHg 70%
    08:00 +12°C° 0 mm 3 mps 738 mmHg 65%
    09:00 +14°C° 0 mm 4 mps 737 mmHg 59%
    10:00 +16°C° 0 mm 5 mps 737 mmHg 53%
    11:00 +17°C° 0 mm 5 mps 736 mmHg 47%
    12:00 +20°C° 0 mm 6 mps 736 mmHg 44%
    13:00 +21°C° 0 mm 6 mps 735 mmHg 41%
    14:00 +22°C° 0 mm 7 mps 735 mmHg 38%
    15:00 +22°C° 0 mm 6 mps 734 mmHg 41%
    16:00 +22°C° 0 mm 6 mps 733 mmHg 44%
    17:00 +22°C° 0 mm 6 mps 733 mmHg 47%
    18:00 +21°C° 0 mm 5 mps 733 mmHg 53%
    19:00 +19°C° 0 mm 5 mps 732 mmHg 59%
    20:00 +17°C° 0 mm 5 mps 732 mmHg 65%
    21:00 +16°C° 0 mm 5 mps 733 mmHg 67%
    22:00 +15°C° 0 mm 5 mps 733 mmHg 69%
    23:00 +15°C° 0 mm 5 mps 733 mmHg 72%

    Day after tomorrow, 22 April, Sunday

    Time Temperature Precipitation Wind Pressure Humidity
    00:00 +13°C° 0 mm 4 mps 733 mmHg 72%
    01:00 +12°C° 0 mm 4 mps 734 mmHg 72%
    02:00 +11°C° 0 mm 4 mps 734 mmHg 72%
    03:00 +10°C° 0 mm 4 mps 734 mmHg 71%
    04:00 +8°C° 0 mm 4 mps 734 mmHg 70%
    05:00 +7°C° 0 mm 4 mps 734 mmHg 69%
    06:00 +8°C° 0 mm 4 mps 734 mmHg 65%
    07:00 +9°C° 0 mm 5 mps 735 mmHg 61%
    08:00 +10°C° 0 mm 5 mps 735 mmHg 57%
    09:00 +12°C° 0 mm 5 mps 735 mmHg 52%
    10:00 +14°C° 0 mm 6 mps 735 mmHg 47%
    11:00 +15°C° 0 mm 6 mps 735 mmHg 42%
    12:00 +16°C° 0 mm 6 mps 735 mmHg 41%
    13:00 +16°C° 0 mm 6 mps 735 mmHg 39%
    14:00 +17°C° 0 mm 6 mps 734 mmHg 37%
    15:00 +17°C° 0 mm 5 mps 734 mmHg 39%
    16:00 +16°C° 0 mm 5 mps 734 mmHg 40%
    17:00 +16°C° 0 mm 5 mps 734 mmHg 41%
    18:00 +15°C° 0 mm 4 mps 734 mmHg 47%
    19:00 +13°C° 0 mm 3 mps 734 mmHg 52%
    20:00 +12°C° 0 mm 2 mps 734 mmHg 58%
    21:00 +12°C° 0 mm 2 mps 734 mmHg 60%
    22:00 +10°C° 0 mm 2 mps 735 mmHg 62%
    23:00 +10°C° 0 mm 2 mps 735 mmHg 64%

    23 April, Monday

    Time Temperature Precipitation Wind Pressure Humidity
    00:00 +9°C° 0 mm 2 mps 735 mmHg 66%
    01:00 +9°C° 0 mm 2 mps 735 mmHg 68%
    02:00 +9°C° 0 mm 2 mps 735 mmHg 70%
    03:00 +8°C° 0 mm 2 mps 734 mmHg 71%
    04:00 +8°C° 0 mm 2 mps 734 mmHg 73%
    05:00 +8°C° 0 mm 2 mps 734 mmHg 75%
    06:00 +9°C° 0 mm 2 mps 734 mmHg 71%
    07:00 +12°C° 0 mm 2 mps 735 mmHg 66%
    08:00 +12°C° 0 mm 3 mps 735 mmHg 62%
    09:00 +14°C° 0 mm 3 mps 735 mmHg 57%
    10:00 +16°C° 0 mm 3 mps 735 mmHg 51%
    11:00 +17°C° 0 mm 3 mps 735 mmHg 45%
    12:00 +18°C° 0 mm 3 mps 734 mmHg 42%
    13:00 +18°C° 0 mm 3 mps 734 mmHg 40%
    14:00 +19°C° 0 mm 3 mps 734 mmHg 37%
    15:00 +19°C° 0 mm 2 mps 734 mmHg 38%
    16:00 +19°C° 0 mm 2 mps 734 mmHg 38%
    17:00 +20°C° 0 mm 1 mps 733 mmHg 38%
    18:00 +19°C° 0 mm 1 mps 733 mmHg 42%
    19:00 +16°C° 0 mm 1 mps 733 mmHg 46%
    20:00 +14°C° 0 mm 1 mps 733 mmHg 50%
    21:00 +14°C° 0 mm 2 mps 733 mmHg 53%
    22:00 +12°C° 0 mm 3 mps 733 mmHg 55%
    23:00 +12°C° 0 mm 3 mps 732 mmHg 58%

    24 April, Tuesday

    Time Temperature Precipitation Wind Pressure Humidity
    00:00 +12°C° 0 mm 3 mps 732 mmHg 58%
    01:00 +12°C° 0 mm 4 mps 732 mmHg 59%
    02:00 +12°C° 0 mm 4 mps 731 mmHg 59%
    03:00 +12°C° 0 mm 4 mps 731 mmHg 62%
    04:00 +12°C° 0 mm 4 mps 731 mmHg 65%
    05:00 +11°C° 0 mm 4 mps 731 mmHg 67%
    06:00 +12°C° 0 mm 4 mps 731 mmHg 72%
    07:00 +13°C° 0 mm 5 mps 731 mmHg 77%
    08:00 +14°C° 0 mm 5 mps 731 mmHg 82%
    09:00 +14°C° 0.4 mm 5 mps 732 mmHg 81%
    10:00 +14°C° 0.4 mm 5 mps 732 mmHg 80%
    11:00 +14°C° 0.4 mm 5 mps 733 mmHg 80%
    12:00 +15°C° 0.1 mm 6 mps 733 mmHg 71%
    13:00 +16°C° 0.1 mm 6 mps 734 mmHg 63%
    14:00 +17°C° 0.1 mm 6 mps 734 mmHg 55%
    15:00 +17°C° 0 mm 6 mps 734 mmHg 53%
    16:00 +17°C° 0 mm 6 mps 734 mmHg 51%
    17:00 +17°C° 0 mm 6 mps 734 mmHg 49%
    18:00 +15°C° 0 mm 5 mps 734 mmHg 55%
    19:00 +13°C° 0 mm 4 mps 734 mmHg 61%
    20:00 +12°C° 0 mm 3 mps 734 mmHg 68%
    21:00 +12°C° 0 mm 2 mps 734 mmHg 70%
    22:00 +12°C° 0 mm 2 mps 734 mmHg 73%
    23:00 +10°C° 0 mm 2 mps 735 mmHg 76%

    25 April, Wednesday

    Time Temperature Precipitation Wind Pressure Humidity
    00:00 +10°C° 0 mm 2 mps 735 mmHg 77%
    01:00 +10°C° 0 mm 2 mps 735 mmHg 78%
    02:00 +10°C° 0 mm 2 mps 735 mmHg 79%
    03:00 +10°C° 0 mm 2 mps 735 mmHg 79%
    04:00 +10°C° 0 mm 3 mps 735 mmHg 79%
    05:00 +10°C° 0 mm 3 mps 735 mmHg 79%
    06:00 +12°C° 0 mm 4 mps 735 mmHg 76%
    07:00 +13°C° 0 mm 4 mps 735 mmHg 73%
    08:00 +14°C° 0 mm 5 mps 735 mmHg 69%
    09:00 +16°C° 0 mm 5 mps 735 mmHg 64%
    10:00 +19°C° 0 mm 5 mps 735 mmHg 59%
    11:00 +21°C° 0 mm 5 mps 735 mmHg 53%
    12:00 +21°C° 0 mm 6 mps 735 mmHg 52%
    13:00 +22°C° 0 mm 6 mps 734 mmHg 50%
    14:00 +23°C° 0 mm 6 mps 734 mmHg 48%
    15:00 +23°C° 0 mm 5 mps 734 mmHg 49%
    16:00 +23°C° 0 mm 5 mps 733 mmHg 50%
    17:00 +23°C° 0 mm 4 mps 733 mmHg 51%
    18:00 +21°C° 0 mm 4 mps 733 mmHg 56%
    19:00 +19°C° 0 mm 3 mps 732 mmHg 60%
    20:00 +18°C° 0 mm 3 mps 732 mmHg 65%
    21:00 +17°C° 0 mm 3 mps 732 mmHg 67%
    22:00 +17°C° 0 mm 3 mps 732 mmHg 69%
    23:00 +16°C° 0 mm 3 mps 732 mmHg 71%
    Show more